Starlink 3629

operational
NORAD ID: 51774 Int'l Des: 2022-017 Owner: SPXS Country: US Constellation: starlink
LEOCIRCULAR

About Starlink 3629

Description loading...

Live Position

Loading 3D Globe...

Upcoming Passes

Altitude History

Altitude vs Time

uPlot chart will show altitude changes over time

Two-Line Element Set

1 51774U 22017G 25259.11873710 .00000052 00000-0 21341-4 0 9999
2 51774 53.2189 42.8017 0001259 92.2695 267.8442 15.08840154196214
Epoch: Sep 16, 2025 • Age: 8 hours

Current Status

Altitude 540.0 km
Velocity 7.59 km/s
Sub-Earth Point 6.29°N, 112.13°W
Launch Date Feb 25, 2022
Age 3.5 years
Type internet

Technical Details

Classification Payload
Mass 297.00 kg
Dry Mass 275.00 kg
Total Mass 297.00 kg
Length 0.20 m
Diameter 2.80 m
Span 9.00 m
Shape Box + pan
Manufacturer SPXS
Bus Type Starlink
Phase Status In Orbit
Owner/State SPXS/US

Large Constellations

Loading constellations...